This demonstration page uses our WeatherBlox Daily Observations layout. Learn more.

Left ArrowRight Arrow

Hourly Observations for November 24, 2020

Temp ( °F °C ) Dew Point ( °F °C ) Humidity (%) Winds ( mph kmh ) Pressure ( in mb ) Visibility ( mi km ) Precip ( " mm )
12:03 am 00:03 Cloudy with Mist and Fog 41 5 41 5 100 100 SE 10 17 29.84 1010 3 4 0.00 0.00
12:24 am 00:24 Cloudy with Mist and Fog 41 5 41 5 100 100 SE 13 20 29.83 1010 2 2 0.00 0.00
12:56 am 00:56 Cloudy with Mist and Fog 42 5.6 42 5.6 100 100 SE 7 11 29.80 1009 1 2 0.00 0.00
1:21 am 01:21 Cloudy with Mist and Fog 43 6 43 6 100 100 SE 8 13 29.82 1010 1 1 0.00 0.00
1:56 am 01:56 Cloudy with Fog 43 6.1 42 5.6 97 97 SE 9 15 29.78 1008 1 1 0.00 0.00
2:56 am 02:56 Cloudy with Light Rain 43 6.1 43 6.1 100 100 ENE 6 9 29.77 1008 1 1 0.00 0.00
3:26 am 03:26 Cloudy with Light Rain 43 6 43 6 100 100 ENE 8 13 29.79 1009 1 1 0.01 0.25
3:34 am 03:34 Cloudy with Light Rain 43 6 43 6 100 100 NE 8 13 29.79 1009 1 2 0.01 0.25
3:51 am 03:51 Cloudy with Light Rain 43 6 43 6 100 100 NE 10 17 29.78 1008 3 5 0.02 0.51
3:56 am 03:56 Cloudy with Light Rain 42 5.6 42 5.6 100 100 NE 10 17 29.76 1008 4 6 0.02 0.51
4:56 am 04:56 Cloudy with Light Rain 42 5.6 41 5 96 96 NE 10 17 29.76 1008 5 8 0.03 0.76
5:56 am 05:56 Cloudy with Light Rain 41 5 40 4.4 96 96 NNE 13 20 29.76 1008 3 5 0.01 0.25
6:20 am 06:20 Cloudy with Light Rain 39 4 39 4 100 100 N 16 26 29.81 1009 3 4 0.01 0.25
6:43 am 06:43 Cloudy with Light Rain 39 4 39 4 100 100 NE 17 28 29.80 1009 3 5 0.00 0.00
6:56 am 06:56 Cloudy with Light Rain 39 3.9 38 3.3 96 96 NNE 16 26 29.78 1009 5 8 0.01 0.25
7:56 am 07:56 Cloudy with Light Rain 38 3.3 38 3.3 100 100 NNE 14 22 29.80 1009 8 13 0.02 0.51
8:28 am 08:28 Cloudy with Light Rain 37 3 37 3 100 100 N 16 26 29.85 1011 7 11 0.01 0.25
8:56 am 08:56 Cloudy with Light Rain 38 3.3 38 3.3 100 100 N 18 30 29.80 1009 5 8 0.01 0.25
9:39 am 09:39 Cloudy 39 4 37 3 93 93 N 18 30 29.85 1011 10 16 0.00 0.00
9:56 am 09:56 Cloudy 39 3.9 38 3.3 96 96 N 18 30 29.82 1010 10 16 0.00 0.00
10:56 am 10:56 Cloudy 39 3.9 38 3.3 96 96 N 20 31 29.82 1010 10 16 0.00 0.00
11:08 am 11:08 Cloudy 39 4 37 3 93 93 N 21 33 29.86 1011 10 16 0.00 0.00
11:17 am 11:17 Cloudy 39 4 37 3 93 93 N 18 30 29.87 1011 10 16 0.00 0.00
11:46 am 11:46 Cloudy 39 4 37 3 93 93 N 17 28 29.87 1011 10 16 0.00 0.00
11:56 am 11:56 Cloudy 40 4.4 37 2.8 89 89 N 20 31 29.83 1010 10 16 0.00 0.00
12:33 pm 12:33 Cloudy 37 3 32 0 81 81 N 18 30 29.87 1012 10 16 0.00 0.00
12:43 pm 12:43 Cloudy 37 3 32 0 81 81 N 18 30 29.88 1012 10 16 0.00 0.00
12:56 pm 12:56 Cloudy 37 2.8 31 -0.6 79 79 N 22 35 29.84 1011 10 16 0.00 0.00
1:56 pm 13:56 Cloudy 37 2.8 30 -1.1 76 76 N 18 30 29.84 1010 10 16 0.00 0.00
2:56 pm 14:56 Mostly Cloudy 39 3.9 33 0.6 79 79 N 20 31 29.82 1010 10 16 0.00 0.00
3:56 pm 15:56 Cloudy 38 3.3 31 -0.6 76 76 N 24 39 29.83 1010 10 16 0.00 0.00
4:56 pm 16:56 Cloudy 37 2.8 30 -1.1 76 76 N 15 24 29.85 1011 10 16 0.00 0.00
5:56 pm 17:56 Cloudy 37 2.8 28 -2.2 70 70 N 12 19 29.88 1012 10 16 0.00 0.00
6:56 pm 18:56 Cloudy 37 2.8 28 -2.2 70 70 N 9 15 29.92 1013 10 16 0.00 0.00
7:56 pm 19:56 Cloudy 37 2.8 25 -3.9 62 62 N 21 33 29.92 1013 10 16 0.00 0.00
8:56 pm 20:56 Cloudy 36 2.2 24 -4.4 62 62 N 20 31 29.93 1014 10 16 0.00 0.00
9:56 pm 21:56 Mostly Clear 33 0.6 23 -5 66 66 N 14 22 29.94 1014 10 16 0.00 0.00
10:56 pm 22:56 Clear 32 0 22 -5.6 66 66 N 16 26 29.93 1013 10 16 0.00 0.00
11:56 pm 23:56 Clear 31 -0.6 23 -5 72 72 N 15 24 29.93 1013 10 16 0.00 0.00

Powered by AerisWeather